Location: Makanda
(37.6176°N, 89.2090°W)
Time: 07:07:43
(UTC+00:00)

Cosmos 2221 Rocket - Pass Details

Date: 23 September 2019
Orbit: 621 x 647 km, 82.5° (Epoch: 21 October)

Event Time Altitude Azimuth Distance (km) Brightness Sun altitude
Rises 10:50:46 0° 195° (SSW) 2,884 6.7 -11.6°
Reaches altitude 10° 10:53:01 10° 200° (SSW) 1,982 5.9 -11.1°
Maximum altitude 10:57:20 57° 279° (W) 734 3.6 -10.3°
Drops below altitude 10° 11:01:42 10° 359° (N) 2,002 6.3 -9.4°
Sets 11:03:59 0° 3° (N) 2,916 7.1 -9.0°
